TimeCST,TemperatureF,Dew PointF,Humidity,Sea Level PressureIn,VisibilityMPH,Wind Direction,Wind SpeedMPH,Gust SpeedMPH,PrecipitationIn,Events,Conditions,WindDirDegrees,DateUTC
12:15 AM,34.9,28.4,77,29.83,10.0,ENE,16.1,24.2,N/A,,Overcast,60,2013-02-26 06:15:00
12:35 AM,34.7,28.4,78,29.82,10.0,ENE,18.4,24.2,N/A,,Overcast,60,2013-02-26 06:35:00
12:55 AM,34.7,28.4,78,29.82,10.0,ENE,13.8,21.9,N/A,,Overcast,60,2013-02-26 06:55:00
1:15 AM,34.7,28.4,78,29.79,10.0,ENE,18.4,25.3,N/A,,Overcast,60,2013-02-26 07:15:00
1:35 AM,34.7,28.4,78,29.78,10.0,ENE,17.3,24.2,N/A,,Overcast,60,2013-02-26 07:35:00
1:55 AM,34.5,28.8,79,29.77,10.0,ENE,19.6,25.3,N/A,,Overcast,60,2013-02-26 07:55:00
2:15 AM,34.2,28.6,80,29.74,10.0,NE,19.6,25.3,N/A,,Overcast,50,2013-02-26 08:15:00
2:35 AM,34.2,28.8,81,29.72,10.0,NE,15.0,24.2,N/A,,Overcast,50,2013-02-26 08:35:00
2:55 AM,34.2,28.8,81,29.70,10.0,NE,19.6,27.6,N/A,,Overcast,50,2013-02-26 08:55:00
3:15 AM,34.0,28.9,82,29.68,10.0,NE,19.6,25.3,N/A,,Overcast,50,2013-02-26 09:15:00
3:35 AM,34.2,28.4,79,29.67,10.0,NE,18.4,27.6,N/A,,Overcast,50,2013-02-26 09:35:00
3:55 AM,34.0,28.4,80,29.66,10.0,NE,23.0,28.8,N/A,,Overcast,50,2013-02-26 09:55:00
4:15 AM,33.8,28.4,81,29.64,10.0,NE,20.7,29.9,N/A,,Overcast,50,2013-02-26 10:15:00
4:35 AM,33.8,28.6,81,29.64,10.0,NE,20.7,26.5,N/A,,Overcast,50,2013-02-26 10:35:00
4:55 AM,33.8,28.2,80,29.63,10.0,ENE,20.7,27.6,N/A,,Overcast,60,2013-02-26 10:55:00
5:15 AM,33.8,28.4,81,29.60,10.0,NE,24.2,28.8,N/A,,Overcast,50,2013-02-26 11:15:00
5:35 AM,33.8,28.4,81,29.60,10.0,NE,21.9,28.8,N/A,,Overcast,50,2013-02-26 11:35:00
5:55 AM,33.8,28.4,81,29.60,10.0,NE,19.6,32.2,N/A,,Overcast,50,2013-02-26 11:55:00
6:15 AM,34.0,28.2,79,29.61,7.0,NE,18.4,28.8,N/A,Snow,Light Snow,50,2013-02-26 12:15:00
6:35 AM,34.0,27.7,78,29.60,10.0,ENE,24.2,33.4,N/A,,Overcast,60,2013-02-26 12:35:00
6:55 AM,34.2,27.5,77,29.60,10.0,NE,20.7,32.2,N/A,,Overcast,50,2013-02-26 12:55:00
7:15 AM,33.3,28.4,82,29.59,0.8,NE,21.9,28.8,N/A,Snow,Light Snow,50,2013-02-26 13:15:00
7:35 AM,32.0,30.6,94,29.59,0.2,NE,24.2,32.2,N/A,Snow,Snow,50,2013-02-26 13:35:00
7:55 AM,31.6,31.6,100,29.58,0.2,NE,20.7,26.5,N/A,Snow,Heavy Snow,40,2013-02-26 13:55:00
8:15 AM,31.6,31.6,100,29.56,0.2,NE,24.2,29.9,N/A,Snow,Snow,40,2013-02-26 14:15:00
8:35 AM,31.8,31.8,100,29.56,0.2,NE,21.9,26.5,0.01,Snow,Snow,40,2013-02-26 14:35:00
8:55 AM,31.8,31.1,97,29.56,0.5,NE,21.9,27.6,0.01,Snow,Snow,40,2013-02-26 14:55:00
9:15 AM,32.0,31.1,96,29.57,0.8,NE,19.6,27.6,N/A,Snow,Light Snow,50,2013-02-26 15:15:00
9:35 AM,32.0,31.1,96,29.55,0.8,NE,19.6,-,0.01,Snow,Light Snow,40,2013-02-26 15:35:00
9:55 AM,32.0,31.1,96,29.54,0.8,NE,21.9,28.8,0.01,Snow,Light Snow,40,2013-02-26 15:55:00
10:15 AM,32.2,31.5,97,29.52,0.8,NNE,24.2,31.1,N/A,Snow,Light Snow,30,2013-02-26 16:15:00
10:35 AM,32.0,31.3,97,29.52,1.2,NE,24.2,31.1,N/A,Snow,Light Snow,40,2013-02-26 16:35:00
10:55 AM,32.0,31.5,98,29.51,1.2,NE,24.2,29.9,N/A,Snow,Light Snow,40,2013-02-26 16:55:00
11:15 AM,32.2,31.5,97,29.52,0.8,NE,21.9,29.9,N/A,Snow,Light Snow,40,2013-02-26 17:15:00
11:35 AM,32.4,31.6,97,29.52,0.5,NE,20.7,27.6,N/A,Snow,Light Snow,40,2013-02-26 17:35:00
11:55 AM,32.4,31.6,97,29.52,0.8,NNE,19.6,25.3,N/A,Snow,Light Snow,30,2013-02-26 17:55:00
12:15 PM,32.4,31.6,97,29.51,0.8,NNE,19.6,25.3,N/A,Snow,Light Snow,30,2013-02-26 18:15:00
12:35 PM,32.5,31.5,96,29.50,1.0,NNE,20.7,26.5,N/A,Snow,Light Snow,30,2013-02-26 18:35:00
12:55 PM,-9999,-9999,N/A,-9999,-9999.0,North,-9999.0,-,N/A,,Overcast,0,2013-02-26 18:55:00
1:15 PM,-9999,-9999,N/A,-9999,-9999.0,North,-9999.0,-,N/A,,Unknown,0,2013-02-26 19:15:00
4:15 PM,31.8,30.2,94,29.53,5.0,North,20.7,26.5,N/A,,Unknown,10,2013-02-26 22:15:00
4:35 PM,31.8,29.7,92,29.53,10.0,NNE,21.9,-,N/A,,Unknown,20,2013-02-26 22:35:00
4:55 PM,31.8,29.7,92,29.54,7.0,NNE,24.2,31.1,N/A,,Unknown,30,2013-02-26 22:55:00
5:15 PM,31.8,29.3,90,29.54,10.0,NNE,20.7,27.6,N/A,,Unknown,20,2013-02-26 23:15:00
5:35 PM,31.6,30.2,94,29.55,5.0,North,20.7,27.6,N/A,,Overcast,10,2013-02-26 23:35:00
5:55 PM,31.1,31.1,100,29.56,2.0,North,19.6,-,N/A,Snow,Light Snow,10,2013-02-26 23:55:00
6:15 PM,31.1,30.2,96,29.56,2.5,North,19.6,-,N/A,,Overcast,360,2013-02-27 00:15:00
6:35 PM,30.6,30.0,98,29.57,3.0,North,18.4,-,N/A,,Overcast,360,2013-02-27 00:35:00
6:55 PM,30.6,30.0,98,29.57,1.2,North,19.6,26.5,N/A,Snow,Light Snow,360,2013-02-27 00:55:00
7:15 PM,30.6,30.0,98,29.58,1.8,North,17.3,24.2,N/A,Snow,Light Snow,360,2013-02-27 01:15:00
7:35 PM,30.7,30.0,97,29.58,2.5,North,18.4,23.0,N/A,,Overcast,360,2013-02-27 01:35:00
7:55 PM,30.9,30.0,96,29.58,4.0,North,17.3,-,N/A,,Overcast,360,2013-02-27 01:55:00
8:15 PM,31.1,29.8,95,29.59,7.0,North,16.1,21.9,N/A,,Overcast,350,2013-02-27 02:15:00
8:35 PM,31.1,29.8,95,29.59,7.0,North,17.3,-,N/A,,Overcast,350,2013-02-27 02:35:00
8:55 PM,32.0,30.2,93,29.60,4.0,North,13.8,20.7,N/A,Snow,Light Snow,350,2013-02-27 02:55:00
9:15 PM,31.1,30.2,96,29.59,3.0,North,16.1,-,N/A,Snow,Light Snow,350,2013-02-27 03:15:00
9:35 PM,31.1,30.2,96,29.60,2.0,North,15.0,-,N/A,Snow,Light Snow,350,2013-02-27 03:35:00
9:55 PM,31.1,30.2,96,29.60,4.0,North,16.1,-,N/A,,Overcast,350,2013-02-27 03:55:00
10:15 PM,31.1,30.2,96,29.60,4.0,NNW,12.7,-,N/A,,Overcast,340,2013-02-27 04:15:00
10:35 PM,31.1,30.4,97,29.60,4.0,NNW,12.7,-,N/A,Snow,Light Snow,340,2013-02-27 04:35:00
10:55 PM,31.1,30.2,96,29.60,4.0,NNW,12.7,-,N/A,Snow,Light Snow,340,2013-02-27 04:55:00
11:15 PM,31.1,30.6,98,29.60,4.0,NNW,13.8,17.3,N/A,,Overcast,330,2013-02-27 05:15:00
11:35 PM,31.1,30.6,98,29.60,5.0,NNW,13.8,-,N/A,,Overcast,330,2013-02-27 05:35:00
11:55 PM,31.1,30.4,97,29.60,7.0,NNW,12.7,-,N/A,,Overcast,330,2013-02-27 05:55:00